Location: ?ern� Novina
(50.6762°N, 14.8696°E)
Time: 16:58:09
(UTC+00:00)

Cosmos 2184 Rocket - Pass Details

Date: 03 March 2021
Orbit: 960 x 1001 km, 82.9° (Epoch: 12 April)

Event Time Altitude Azimuth Distance (km) Brightness Sun altitude
Rises 17:55:17 0° 196° (SSW) 3,632 7.2 -11.8°
Reaches altitude 10° 17:57:47 10° 199° (SSW) 2,691 6.5 -12.2°
Maximum altitude 18:03:55 68° 282° (WNW) 1,039 4.4 -13.2°
Drops below altitude 10° 18:10:08 10° 6° (N) 2,729 6.4 -14.2°
Sets 18:12:42 0° 9° (N) 3,686 7.0 -14.6°
